EW5945 Weather Reports


Display with metric or nautical units.
time (UTC)temp
F
wind
direction
speed
MPH
gust
MPH
rain 1hr
in
rain 24hr
in
rain mn
in
humidity
%
barometer
mb
20260906173838 86 54 6.0 7.0 0.00 0.00 0.00 75 1012.5
20260906173339 86 54 2.0 2.0 0.00 0.00 0.00 77 1012.2
20260906172339 86 47 6.0 15.0 0.00 0.00 0.00 77 1012.5
20260906171838 86 33 5.0 10.0 0.00 0.00 0.00 78 1012.5
20260906171338 85 32 5.0 7.0 0.00 0.00 0.00 77 1012.5
20260906170400 85 69 3.0 7.0 0.00 0.00 0.00 77 1012.5
20260906165839 85 212 2.0 3.0 0.00 0.00 0.00 78 1012.5
20260906165338 85 80 3.0 3.0 0.00 0.00 0.00 76 1012.9
20260906164838 85 330 5.0 5.0 0.00 0.00 0.00 75 1012.9
20260906164338 86 43 8.0 15.0 0.00 0.00 0.00 75 1012.9
20260906163839 85 59 2.0 3.0 0.00 0.00 0.00 76 1012.9
20260906163338 86 308 14.0 15.0 0.00 0.00 0.00 78 1012.9
20260906162838 85 39 3.0 9.0 0.00 0.00 0.00 76 1012.9
20260906162339 84 37 6.0 9.0 0.00 0.00 0.00 77 1012.9
20260906161838 84 82 2.0 2.0 0.00 0.00 0.00 77 1013.2
20260906161338 84 11 5.0 10.0 0.00 0.00 0.00 77 1013.2
20260906160839 84 8 3.0 10.0 0.00 0.00 0.00 78 1013.2
20260906160339 84 201 2.0 5.0 0.00 0.00 0.00 77 1013.2
20260906155839 84 63 2.0 7.0 0.00 0.00 0.00 81 1013.2
20260906155338 83 321 8.0 12.0 0.00 0.00 0.00 80 1013.2
20260906154839 83 125 3.0 3.0 0.00 0.00 0.00 81 1013.2
20260906154338 83 9 2.0 5.0 0.00 0.00 0.00 81 1013.2
20260906153838 83 95 2.0 7.0 0.00 0.00 0.00 82 1013.2
20260906153338 83 344 5.0 12.0 0.00 0.00 0.00 82 1013.2
20260906152838 83 122 3.0 5.0 0.00 0.00 0.00 82 1013.5
20260906152338 82 84 3.0 3.0 0.00 0.00 0.00 84 1013.2
20260906151838 82 46 2.0 3.0 0.00 0.00 0.00 84 1013.2
20260906151340 82 7 5.0 10.0 0.00 0.00 0.00 84 1013.2
20260906150838 81 46 6.0 7.0 0.00 0.00 0.00 86 1013.2
20260906150338 81 53 11.0 12.0 0.00 0.00 0.00 87 1013.2
20260906145838 81 25 3.0 5.0 0.00 0.00 0.00 86 1013.2
20260906145338 81 18 6.0 7.0 0.00 0.00 0.00 86 1013.2
20260906144838 81 45 3.0 12.0 0.00 0.00 0.00 85 1013.2
20260906144338 81 340 5.0 12.0 0.00 0.00 0.00 87 1013.2
20260906143839 80 7 6.0 9.0 0.00 0.00 0.00 88 1013.2
20260906143338 80 39 8.0 12.0 0.00 0.00 0.00 89 1012.9
20260906142838 80 10 3.0 3.0 0.00 0.00 0.00 91 1013.2
20260906142338 79 41 11.0 14.0 0.00 0.00 0.00 91 1012.9
20260906141838 79 41 3.0 5.0 0.00 0.00 0.00 92 1012.9
20260906141338 79 55 2.0 3.0 0.00 0.00 0.00 93 1012.9
20260906140838 79 78 2.0 2.0 0.00 0.00 0.00 94 1012.9
20260906140339 79 318 2.0 2.0 0.00 0.00 0.00 94 1012.9
20260906135838 78 32 2.0 7.0 0.00 0.00 0.00 93 1012.9
20260906135338 78 56 5.0 5.0 0.00 0.00 0.00 94 1012.9
20260906134839 78 9 2.0 7.0 0.00 0.00 0.00 94 1012.5
20260906134342 78 341 2.0 3.0 0.00 0.00 0.00 95 1012.5
20260906133839 77 111 2.0 7.0 0.00 0.00 0.00 96 1012.5
20260906133339 77 35 10.0 10.0 0.00 0.00 0.00 96 1012.5
20260906132838 77 6 6.0 12.0 0.00 0.00 0.00 96 1012.5
20260906132339 75 8 5.0 5.0 0.00 0.00 0.00 99 1012.5
20260906131839 75 40 8.0 9.0 0.00 0.00 0.00 100 1012.5
20260906131339 75 340 2.0 3.0 0.00 0.00 0.00 100 1012.5
20260906130839 75 47 5.0 5.0 0.00 0.00 0.00 100 1012.5
20260906130338 74 34 3.0 10.0 0.00 0.00 0.00 100 1012.5
20260906125838 74 22 3.0 5.0 0.00 0.00 0.00 100 1012.5
20260906125338 74 39 3.0 3.0 0.00 0.00 0.00 100 1012.5
20260906124839 73 50 3.0 3.0 0.00 0.00 0.00 100 1012.5
20260906124338 73 36 3.0 5.0 0.00 0.00 0.00 100 1012.5
20260906123838 73 39 2.0 2.0 0.00 0.00 0.00 100 1012.5
20260906123338 72 6 0.0 3.0 0.00 0.00 0.00 100 1012.5
20260906122838 72 358 0.0 3.0 0.00 0.00 0.00 100 1012.5
20260906122338 72 24 3.0 5.0 0.00 0.00 0.00 100 1012.5
20260906121838 72 358 2.0 5.0 0.00 0.00 0.00 100 1012.2
20260906121338 72 332 0.0 2.0 0.00 0.00 0.00 100 1012.2
20260906120838 72 338 0.0 0.0 0.00 0.00 0.00 100 1012.2
20260906120343 72 21 0.0 2.0 0.00 0.00 0.00 100 1012.2
20260906115838 71 18 2.0 3.0 0.00 0.00 0.00 100 1012.2
20260906115338 71 27 2.0 2.0 0.00 0.00 0.00 100 1012.2
20260906114838 71 350 0.0 0.0 0.00 0.00 0.00 100 1012.2
20260906114338 71 23 0.0 2.0 0.00 0.00 0.00 100 1012.2
20260906113839 71 1 3.0 5.0 0.00 0.00 0.00 100 1012.2
20260906113339 71 26 3.0 3.0 0.00 0.00 0.00 100 1012.2
20260906112838 71 41 3.0 3.0 0.00 0.00 0.00 100 1012.2
20260906112338 71 35 3.0 3.0 0.00 0.00 0.00 100 1012.2
20260906111838 71 7 2.0 2.0 0.00 0.00 0.00 100 1012.2
20260906111338 71 17 0.0 0.0 0.00 0.00 0.00 100 1011.9
20260906110838 71 352 0.0 0.0 0.00 0.00 0.00 100 1011.9
20260906110339 71 25 2.0 2.0 0.00 0.00 0.00 100 1011.9
20260906105838 71 41 2.0 2.0 0.00 0.00 0.00 100 1011.5
20260906105338 71 25 2.0 2.0 0.00 0.00 0.00 100 1011.9
20260906104839 70 14 0.0 0.0 0.00 0.00 0.00 100 1011.5
20260906104338 71 4 0.0 0.0 0.00 0.00 0.00 100 1011.5
20260906103838 71 17 3.0 3.0 0.00 0.00 0.00 100 1011.5
20260906103338 71 18 0.0 0.0 0.00 0.00 0.00 100 1011.5
20260906102838 71 7 0.0 0.0 0.00 0.00 0.00 100 1011.5
20260906102338 71 7 0.0 0.0 0.00 0.00 0.00 100 1011.5
20260906101839 71 7 0.0 2.0 0.00 0.00 0.00 100 1011.5
20260906101338 70 355 0.0 0.0 0.00 0.00 0.00 100 1011.5
20260906100838 70 7 0.0 0.0 0.00 0.00 0.00 100 1011.2
20260906100338 70 355 0.0 0.0 0.00 0.00 0.00 100 1011.2
20260906095838 71 330 0.0 0.0 0.00 0.00 0.00 100 1011.2
20260906095339 70 330 0.0 0.0 0.00 0.00 0.00 100 1010.8
20260906094840 71 324 0.0 0.0 0.00 0.00 0.00 100 1010.8
20260906094339 71 324 0.0 0.0 0.00 0.00 0.00 100 1010.8
20260906093839 71 331 0.0 0.0 0.00 0.00 0.00 100 1010.8
20260906093338 71 329 0.0 0.0 0.00 0.00 0.00 100 1010.8
20260906092842 71 323 0.0 0.0 0.00 0.00 0.00 100 1010.8
20260906092338 71 325 0.0 0.0 0.00 0.00 0.00 100 1010.8
20260906091838 71 324 0.0 0.0 0.00 0.00 0.00 100 1010.5
20260906091339 71 330 0.0 0.0 0.00 0.00 0.00 100 1010.5
20260906090840 71 326 0.0 0.0 0.00 0.00 0.00 100 1010.5
20260906090338 71 324 0.0 0.0 0.00 0.00 0.00 100 1010.5
20260906085838 71 325 0.0 0.0 0.00 0.00 0.00 100 1010.8
20260906085338 71 324 0.0 0.0 0.00 0.00 0.00 100 1010.8
20260906084838 71 311 0.0 0.0 0.00 0.00 0.00 100 1010.5
20260906084338 71 296 0.0 0.0 0.00 0.00 0.00 100 1010.5
20260906083838 71 295 0.0 0.0 0.00 0.00 0.00 100 1010.5
20260906083338 71 10 0.0 0.0 0.00 0.00 0.00 100 1010.5
20260906082838 71 11 0.0 0.0 0.00 0.00 0.00 100 1010.5
20260906082339 71 12 0.0 0.0 0.00 0.00 0.00 100 1010.5
20260906081840 71 12 0.0 0.0 0.00 0.00 0.00 100 1010.5
20260906081338 71 19 0.0 0.0 0.00 0.00 0.00 100 1010.5
20260906080841 71 2 0.0 0.0 0.00 0.00 0.00 100 1010.5
20260906080338 71 2 0.0 0.0 0.00 0.00 0.00 100 1010.5
20260906075838 71 2 0.0 0.0 0.00 0.00 0.00 100 1010.8
20260906075338 71 2 0.0 0.0 0.00 0.00 0.00 100 1010.8
20260906074838 71 3 0.0 0.0 0.00 0.00 0.00 100 1010.8
20260906074339 71 3 0.0 0.0 0.00 0.00 0.00 100 1010.8
20260906073838 71 7 0.0 0.0 0.00 0.00 0.00 100 1010.8
20260906073338 72 2 0.0 0.0 0.00 0.00 0.00 100 1010.8
20260906072838 72 3 0.0 0.0 0.00 0.00 0.00 100 1010.5
20260906072338 72 340 0.0 0.0 0.00 0.00 0.00 100 1010.5
20260906071838 72 340 0.0 0.0 0.00 0.00 0.00 100 1010.5
20260906071338 72 341 0.0 0.0 0.00 0.00 0.00 100 1010.5
20260906070838 72 337 0.0 0.0 0.00 0.00 0.00 100 1010.5
20260906070338 72 337 0.0 0.0 0.00 0.00 0.00 100 1010.5
20260906065838 72 338 0.0 0.0 0.00 0.00 0.00 100 1010.5
20260906065342 72 336 0.0 0.0 0.00 0.00 0.00 100 1010.5
20260906064838 72 349 0.0 0.0 0.00 0.00 0.00 100 1010.5
20260906064338 72 349 0.0 0.0 0.00 0.00 0.00 100 1010.8
20260906063839 72 350 0.0 0.0 0.00 0.00 0.00 100 1010.8
20260906063338 72 355 0.0 0.0 0.00 0.00 0.00 100 1010.8
20260906062839 72 350 0.0 0.0 0.00 0.00 0.00 100 1010.8
20260906062338 72 4 0.0 0.0 0.00 0.00 0.00 100 1010.8
20260906061839 73 6 0.0 0.0 0.00 0.00 0.00 100 1010.8
20260906061338 72 358 0.0 0.0 0.00 0.00 0.00 100 1011.2
20260906060839 73 12 0.0 0.0 0.00 0.00 0.00 100 1011.2
20260906060338 73 27 2.0 2.0 0.00 0.00 0.00 100 1011.2
20260906055838 73 20 2.0 2.0 0.00 0.00 0.00 100 1011.2
20260906055338 73 26 3.0 3.0 0.00 0.00 0.00 100 1011.2
20260906054838 72 35 2.0 2.0 0.00 0.00 0.00 100 1011.2
20260906054339 73 345 0.0 0.0 0.00 0.00 0.00 100 1011.2
20260906053838 73 306 0.0 0.0 0.00 0.00 0.00 100 1011.2
20260906053338 72 353 0.0 0.0 0.00 0.00 0.00 100 1011.5
20260906052838 72 77 0.0 2.0 0.00 0.00 0.00 100 1011.5
20260906052339 72 271 0.0 2.0 0.00 0.00 0.00 100 1011.9
20260906051838 73 6 0.0 2.0 0.00 0.00 0.00 100 1011.9
20260906051338 73 83 0.0 2.0 0.00 0.00 0.00 100 1011.5
20260906050839 73 42 2.0 2.0 0.00 0.00 0.00 100 1011.9
20260906050340 73 82 0.0 0.0 0.00 0.00 0.00 100 1011.9
20260906045838 73 11 3.0 3.0 0.00 0.00 0.00 100 1011.5
20260906045340 72 335 0.0 0.0 0.00 0.00 0.00 100 1011.5
20260906044838 72 13 0.0 0.0 0.00 0.00 0.00 100 1011.5
20260906044338 72 27 2.0 2.0 0.00 0.00 0.00 100 1011.5
20260906043838 72 53 2.0 2.0 0.00 0.00 0.00 100 1011.5
20260906043338 72 345 0.0 0.0 0.00 0.00 0.00 100 1011.5
20260906042838 72 12 2.0 2.0 0.00 0.00 0.00 100 1011.2
20260906042338 73 358 0.0 0.0 0.00 0.00 0.00 100 1011.2
20260906041839 72 7 0.0 0.0 0.00 0.00 0.00 100 1011.2
20260906041338 73 357 0.0 0.0 0.00 0.00 0.00 100 1011.2
20260906040838 73 318 0.0 0.0 0.00 0.00 0.00 100 1011.2
20260906040338 73 305 0.0 0.0 0.00 0.00 0.00 100 1011.2
20260906035838 73 272 0.0 2.0 0.00 0.00 0.57 100 1011.2
20260906035338 73 285 0.0 0.0 0.00 0.00 0.57 100 1011.2
20260906034838 73 3 0.0 0.0 0.00 0.00 0.57 100 1011.2
20260906034338 73 38 2.0 2.0 0.00 0.00 0.57 100 1011.2
20260906033838 73 39 2.0 2.0 0.00 0.00 0.57 100 1011.5
20260906033339 73 1 0.0 0.0 0.00 0.00 0.57 100 1011.5
20260906032838 73 26 2.0 3.0 0.00 0.00 0.57 100 1011.5
20260906032338 73 47 3.0 3.0 0.00 0.00 0.57 100 1011.5
20260906031839 73 355 2.0 2.0 0.00 0.00 0.57 100 1011.5
20260906031338 73 339 0.0 0.0 0.00 0.00 0.57 100 1011.5
20260906030838 73 305 0.0 0.0 0.00 0.00 0.57 100 1011.5
20260906030338 73 278 0.0 2.0 0.00 0.00 0.57 100 1011.5
20260906025838 73 326 2.0 2.0 0.00 0.00 0.57 100 1011.5
20260906025339 73 13 0.0 0.0 0.00 0.00 0.57 100 1011.9
20260906024840 73 36 2.0 2.0 0.00 0.00 0.57 100 1011.9
20260906024339 73 313 0.0 0.0 0.00 0.00 0.57 100 1011.5
20260906023838 73 304 0.0 2.0 0.00 0.00 0.57 100 1011.5
20260906023341 73 258 0.0 0.0 0.00 0.00 0.57 100 1011.9
20260906022838 73 359 0.0 0.0 0.00 0.00 0.57 100 1011.9
20260906022339 73 348 0.0 2.0 0.00 0.00 0.57 100 1011.9
20260906021838 73 254 2.0 2.0 0.00 0.00 0.57 100 1011.9
20260906021338 73 294 0.0 0.0 0.00 0.00 0.57 100 1011.9
20260906020838 73 305 0.0 0.0 0.00 0.00 0.57 100 1011.9
20260906020338 73 305 0.0 0.0 0.00 0.00 0.57 100 1011.9
20260906015838 73 279 0.0 0.0 0.00 0.00 0.57 100 1011.9
20260906015338 73 241 2.0 2.0 0.00 0.00 0.57 100 1011.9
20260906014839 73 305 0.0 3.0 0.00 0.00 0.57 100 1011.9
20260906014338 73 251 2.0 2.0 0.01 0.00 0.57 100 1011.9
20260906013838 73 266 2.0 2.0 0.01 0.00 0.57 100 1011.9
20260906013338 73 255 2.0 3.0 0.01 0.00 0.57 100 1011.9
20260906012839 73 280 5.0 5.0 0.02 0.00 0.57 100 1011.9
20260906012338 73 266 3.0 7.0 0.02 0.00 0.57 100 1011.5
20260906011838 73 237 5.0 9.0 0.02 0.00 0.57 100 1011.5
20260906011338 73 247 5.0 5.0 0.03 0.00 0.57 100 1011.2
20260906010838 73 245 5.0 5.0 0.03 0.00 0.57 100 1010.8
20260906010338 73 236 2.0 3.0 0.04 0.00 0.57 100 1010.5
20260906005838 73 227 3.0 5.0 0.04 0.00 0.57 100 1010.5
20260906005338 74 235 3.0 3.0 0.05 0.00 0.57 100 1010.2
20260906004839 74 309 0.0 0.0 0.07 0.00 0.57 100 1010.2
20260906004338 74 252 2.0 2.0 0.09 0.00 0.57 100 1010.2
20260906003839 74 218 3.0 3.0 0.11 0.00 0.57 100 1010.5
20260906003338 73 245 2.0 2.0 0.14 0.00 0.57 100 1010.5
20260906002838 73 224 3.0 3.0 0.18 0.00 0.57 100 1010.2
20260906002342 73 249 3.0 5.0 0.21 0.00 0.57 100 1010.2
20260906001838 73 204 3.0 3.0 0.26 0.00 0.57 100 1010.2
20260906001339 73 107 2.0 2.0 0.30 0.00 0.57 100 1010.2
20260906000838 73 226 2.0 2.0 0.34 0.00 0.56 100 1010.2
20260906000340 73 277 0.0 0.0 0.37 0.00 0.56 100 1010.2
20260905235838 73 270 0.0 0.0 0.40 0.00 0.55 100 1010.2
20260905235338 73 267 0.0 0.0 0.41 0.00 0.54 100 1010.5
20260905234838 73 286 0.0 2.0 0.41 0.00 0.54 100 1010.5
20260905234338 73 336 0.0 2.0 0.40 0.00 0.53 100 1010.5
20260905233838 73 322 0.0 0.0 0.38 0.00 0.53 100 1010.5
20260905233338 73 167 0.0 0.0 0.35 0.00 0.52 100 1010.2
20260905232838 73 259 0.0 0.0 0.31 0.00 0.52 100 1009.8
20260905232338 73 34 0.0 0.0 0.27 0.00 0.52 100 1009.5
20260905231838 73 102 0.0 2.0 0.23 0.00 0.52 100 1009.8
20260905231338 74 188 2.0 2.0 0.19 0.00 0.51 100 1010.2
20260905230838 74 255 0.0 0.0 0.14 0.00 0.49 100 1010.8
20260905230338 74 312 2.0 2.0 0.11 0.00 0.46 100 1010.8
20260905225838 74 81 3.0 3.0 0.07 0.00 0.41 98 1011.2
20260905225338 74 240 14.0 15.0 0.04 0.00 0.18 98 1012.5
20260905224838 74 162 3.0 7.0 0.03 0.00 0.17 96 1011.9
20260905224339 75 219 0.0 2.0 0.02 0.00 0.13 93 1009.8
20260905223838 75 356 5.0 15.0 0.01 0.00 0.08 93 1009.1
20260905223339 77 12 5.0 5.0 0.00 0.00 0.07 89 1008.5
20260905222838 79 75 6.0 10.0 0.00 0.00 0.00 85 1009.1
20260905222338 80 359 27.0 29.0 0.00 0.00 0.00 81 1010.2
20260905221838 81 100 14.0 24.0 0.00 0.00 0.00 79 1010.5
20260905221342 82 35 16.0 22.0 0.00 0.00 0.00 80 1010.2
20260905220838 83 90 3.0 3.0 0.00 0.00 0.00 78 1009.5
20260905220339 84 49 2.0 3.0 0.00 0.00 0.00 77 1009.1
20260905215838 84 56 2.0 2.0 0.00 0.00 0.00 75 1009.1
20260905215338 85 294 0.0 2.0 0.00 0.00 0.00 74 1009.1
20260905214839 86 190 3.0 3.0 0.00 0.00 0.00 72 1009.5
20260905214338 88 109 5.0 5.0 0.00 0.00 0.00 70 1009.1
20260905213838 90 116 5.0 5.0 0.00 0.00 0.00 69 1009.1
20260905213338 92 140 6.0 17.0 0.00 0.00 0.00 66 1008.5
20260905212838 95 107 2.0 2.0 0.00 0.00 0.00 64 1008.5
20260905212340 95 322 2.0 2.0 0.00 0.00 0.00 63 1008.1
20260905211838 95 315 0.0 2.0 0.00 0.00 0.00 64 1008.1
20260905211338 95 35 2.0 5.0 0.00 0.00 0.00 62 1008.1
20260905210838 95 175 2.0 3.0 0.00 0.00 0.00 61 1008.1
20260905210340 96 228 2.0 3.0 0.00 0.00 0.00 60 1008.1
20260905205838 95 24 3.0 3.0 0.00 0.00 0.00 62 1008.1
20260905205339 95 232 2.0 5.0 0.00 0.00 0.00 60 1008.1
20260905204840 95 241 3.0 5.0 0.00 0.00 0.00 61 1008.1
20260905204342 96 253 3.0 5.0 0.00 0.00 0.00 60 1008.1
20260905203838 96 233 3.0 3.0 0.00 0.00 0.00 59 1008.1
20260905203339 96 257 3.0 5.0 0.00 0.00 0.00 58 1007.8
20260905202838 96 284 5.0 5.0 0.00 0.00 0.00 59 1007.8
20260905202339 98 222 5.0 9.0 0.00 0.00 0.00 57 1007.8
20260905201838 97 226 2.0 3.0 0.00 0.00 0.00 57 1007.8
20260905201339 98 243 6.0 10.0 0.00 0.00 0.00 57 1008.1
20260905200838 97 215 5.0 7.0 0.00 0.00 0.00 60 1008.1
20260905200338 97 211 3.0 7.0 0.00 0.00 0.00 58 1008.1
20260905195838 98 215 5.0 5.0 0.00 0.00 0.00 57 1008.1
20260905195342 98 267 5.0 5.0 0.00 0.00 0.00 57 1008.1
20260905194838 97 290 5.0 5.0 0.00 0.00 0.00 59 1008.5
20260905194338 98 231 5.0 5.0 0.00 0.00 0.00 56 1008.5
20260905193838 97 315 2.0 3.0 0.00 0.00 0.00 58 1008.8
20260905193339 97 341 3.0 5.0 0.00 0.00 0.00 60 1008.5
20260905192838 98 300 2.0 3.0 0.00 0.00 0.00 59 1008.5
20260905192338 96 8 0.0 2.0 0.00 0.00 0.00 63 1008.8
20260905191838 97 30 3.0 5.0 0.00 0.00 0.00 61 1008.8
20260905191340 97 45 3.0 3.0 0.00 0.00 0.00 65 1009.1
20260905190840 96 326 2.0 3.0 0.00 0.00 0.00 61 1009.1
20260905190338 98 276 3.0 5.0 0.00 0.00 0.00 59 1009.1
20260905185838 97 234 2.0 3.0 0.00 0.00 0.00 60 1009.1
20260905185338 96 299 2.0 2.0 0.00 0.00 0.00 61 1009.5
20260905184838 97 259 5.0 7.0 0.00 0.00 0.00 60 1009.5
20260905184338 96 252 3.0 3.0 0.00 0.00 0.00 63 1009.5
20260905183838 97 241 6.0 7.0 0.00 0.00 0.00 61 1009.5
20260905183338 96 203 2.0 2.0 0.00 0.00 0.00 63 1009.5
20260905182838 96 228 3.0 9.0 0.00 0.00 0.00 63 1009.8
20260905182339 96 179 2.0 9.0 0.00 0.00 0.00 63 1009.8
20260905181838 96 230 8.0 9.0 0.00 0.00 0.00 64 1009.8
20260905181338 96 311 0.0 3.0 0.00 0.00 0.00 65 1010.2
20260905180839 94 284 3.0 7.0 0.00 0.00 0.00 65 1010.2
20260905180338 95 208 2.0 2.0 0.00 0.00 0.00 66 1010.2
20260905175838 95 227 5.0 5.0 0.00 0.00 0.00 67 1010.2
20260905175339 95 205 2.0 5.0 0.00 0.00 0.00 67 1010.2
20260905174839 94 189 3.0 3.0 0.00 0.00 0.00 67 1010.2